FW1140 Weather Reports


time (UTC)temp
C
wind
direction
speed
KPH
gust
KPH
rain 1hr
cm
rain 24hr
cm
rain mn
cm
humidity
%
barometer
mb
20260903070036 18 337 0.0 3.2 0.00 0.00 0.00 93 1004.7
20260903064516 18 324 0.0 0.0 0.00 0.00 0.00 93 1004.7
20260903063028 18 324 0.0 0.0 0.00 0.00 0.00 92 1004.8
20260903061509 18 323 1.6 3.2 0.00 0.00 0.00 92 1004.9
20260903060022 19 142 0.0 3.2 0.00 0.00 0.00 91 1005.0
20260903054509 20 142 0.0 0.0 0.00 0.00 0.00 91 1004.9
20260903053045 20 142 1.6 4.8 0.00 0.00 0.00 92 1005.0
20260903051539 20 153 1.6 4.8 0.00 0.00 0.00 92 1005.0
20260903050027 20 82 0.0 3.2 0.00 0.00 0.00 92 1005.3
20260903044559 20 82 0.0 0.0 0.00 0.00 0.00 92 1005.4
20260903043209 19 82 0.0 0.0 0.00 0.00 0.00 91 1005.2
20260903041521 19 82 0.0 0.0 0.00 0.00 0.00 92 1005.4
20260903040054 20 82 0.0 0.0 0.00 0.00 0.00 90 1005.7
20260903034604 20 82 0.0 0.0 0.00 0.00 0.00 91 1005.7
20260903033039 20 82 0.0 0.0 0.00 0.00 0.00 91 1005.7
20260903031559 19 82 0.0 0.0 0.00 0.00 0.00 91 1005.9
20260903030054 20 82 0.0 0.0 0.00 0.00 0.00 89 1005.9
20260903024605 20 82 0.0 0.0 0.00 0.13 0.00 89 1005.9
20260903023104 20 82 0.0 0.0 0.00 0.13 0.00 89 1005.8
20260903021612 21 82 0.0 0.0 0.00 0.13 0.00 87 1005.7
20260903020021 21 82 0.0 0.0 0.00 0.13 0.00 86 1005.7
20260903014552 22 82 0.0 0.0 0.00 0.15 0.00 85 1005.5
20260903013032 22 82 0.0 0.0 0.00 0.15 0.00 84 1005.3
20260903011544 23 82 0.0 0.0 0.00 0.15 0.00 81 1005.2
20260903010042 23 82 0.0 0.0 0.00 0.15 0.00 80 1005.2
20260903004604 24 82 0.0 1.6 0.00 0.18 0.00 77 1005.2
20260903003106 25 82 0.0 3.2 0.00 0.18 0.00 75 1005.2
20260903001508 26 77 3.2 8.0 0.00 0.18 0.00 71 1005.1
20260903000029 26 51 1.6 9.7 0.00 0.18 0.00 70 1005.1
20260902234532 27 82 4.8 12.9 0.00 0.18 0.00 67 1005.1
20260902233012 27 45 6.4 11.3 0.00 0.18 0.00 65 1005.2
20260902231532 28 68 4.8 12.9 0.00 0.18 0.00 64 1005.3
20260902230104 28 90 8.0 14.5 0.00 0.18 0.00 62 1005.3
20260902224516 28 74 3.2 11.3 0.00 0.18 0.00 61 1005.2
20260902223029 28 54 8.0 16.1 0.00 0.18 0.00 58 1005.4
20260902221542 29 95 8.0 14.5 0.00 0.18 0.00 58 1005.5
20260902220027 29 76 6.4 19.3 0.00 0.18 0.00 57 1005.4
20260902214545 30 87 3.2 12.9 0.00 0.18 0.00 56 1005.4
20260902213125 29 63 6.4 12.9 0.00 0.18 0.00 57 1005.6
20260902211538 30 103 4.8 16.1 0.00 0.18 0.00 56 1005.8
20260902210057 30 60 6.4 16.1 0.00 0.18 0.00 55 1005.9
20260902204551 29 73 6.4 17.7 0.00 0.18 0.00 57 1006.0
20260902203037 29 115 4.8 16.1 0.00 0.18 0.00 53 1006.3
20260902201512 30 63 6.4 16.1 0.00 0.18 0.00 52 1006.3
20260902200023 30 39 6.4 16.1 0.00 0.18 0.00 52 1006.5
20260902193055 30 33 8.0 16.1 0.00 0.18 0.00 52 1006.9
20260902191614 29 129 4.8 14.5 0.00 0.18 0.00 50 1007.0
20260902190005 29 103 6.4 17.7 0.00 0.18 0.00 52 1007.1
20260902184605 29 51 8.0 16.1 0.00 0.18 0.00 50 1007.3
20260902183037 29 53 8.0 16.1 0.00 0.18 0.00 51 1007.5
20260902181507 28 59 8.0 17.7 0.00 0.18 0.00 51 1007.6
20260902180021 28 73 8.0 16.1 0.00 0.18 0.00 52 1007.9
20260902174545 27 70 8.0 16.1 0.00 0.18 0.00 53 1007.9
20260902173113 28 92 8.0 16.1 0.00 0.18 0.00 53 1008.0
20260902171513 27 89 8.0 17.7 0.00 0.18 0.00 54 1008.1
20260902170017 26 78 8.0 16.1 0.00 0.18 0.00 56 1008.0
20260902164511 27 63 8.0 14.5 0.00 0.18 0.00 54 1008.0
20260902163052 26 69 6.4 14.5 0.00 0.18 0.00 60 1008.0
20260902161510 25 82 4.8 9.7 0.00 0.18 0.00 64 1008.0
20260902160033 25 45 3.2 9.7 0.00 0.18 0.00 68 1008.0
20260902154536 23 53 3.2 9.7 0.00 0.18 0.00 69 1008.1
20260902153005 23 13 1.6 9.7 0.00 0.18 0.00 73 1008.1
20260902151530 23 119 3.2 8.0 0.00 0.18 0.00 73 1008.4
20260902144632 21 62 3.2 8.0 0.00 0.18 0.00 79 1008.6
20260902143016 22 78 3.2 6.4 0.00 0.18 0.00 74 1008.8
20260902141503 21 15 1.6 6.4 0.00 0.18 0.00 78 1008.7
20260902140038 21 359 1.6 6.4 0.00 0.18 0.00 81 1008.7
20260902134532 20 354 0.0 1.6 0.00 0.18 0.00 83 1008.8
20260902133101 18 283 0.0 6.4 0.00 0.18 0.00 89 1009.4
20260902131611 17 287 0.0 1.6 0.00 0.18 0.00 90 1009.1
20260902130105 16 277 0.0 3.2 0.00 0.18 0.00 90 1009.4
20260902124541 16 231 0.0 9.7 0.00 0.18 0.00 90 1009.8
20260902123023 16 323 3.2 9.7 0.00 0.18 0.00 90 1009.6
20260902121505 16 297 3.2 11.3 0.00 0.18 0.00 91 1009.4
20260902120038 15 341 0.0 6.4 0.00 0.18 0.00 91 1008.6
20260902114558 15 307 1.6 6.4 0.00 0.18 0.00 92 1008.6
20260902113109 15 294 1.6 4.8 0.00 0.18 0.00 92 1008.5
20260902111540 15 316 1.6 4.8 0.00 0.18 0.00 92 1008.6
20260902110022 15 298 0.0 4.8 0.00 0.18 0.00 92 1008.6
20260902104547 15 300 1.6 4.8 0.00 0.18 0.00 93 1008.5
20260902103003 15 300 0.0 1.6 0.00 0.18 0.00 93 1008.6
20260902101519 15 300 0.0 4.8 0.00 0.18 0.00 93 1008.6
20260902100030 15 300 0.0 0.0 0.00 0.18 0.00 92 1008.7
20260902094517 15 300 0.0 0.0 0.00 0.18 0.00 92 1009.0
20260902093006 16 300 0.0 3.2 0.00 0.18 0.00 91 1009.0
20260902091530 -17 0.0 0.0 0.00 0.18 0.00 1009.0
20260902090051 -17 0.0 0.0 0.00 0.18 0.00 1008.9
20260902084545 -17 0.0 0.0 0.00 0.18 0.00 1009.2
20260902083010 -17 0.0 0.0 0.00 0.18 0.00 1009.3
20260902081529 -17 0.0 0.0 0.00 0.18 0.00 1009.2
20260902080037 -17 0.0 0.0 0.00 0.18 0.00 1009.3
20260902074527 -17 0.0 0.0 0.00 0.18 0.00 1008.9
20260902073016 -17 0.0 0.0 0.00 0.18 0.00 1009.3
20260902071543 -17 0.0 0.0 0.00 0.18 0.00 1009.0